Time,TemperatureF,DewpointF,PressureIn,WindDirection,WindDirectionDegrees,WindSpeedMPH,WindSpeedGustMPH,Humidity,HourlyPrecipIn,Conditions,Clouds,dailyrainin,SoftwareType,DateUTC
2013-05-05 00:00:00,53.9,53.3,29.83,East,83,0.0,0.0,98,0.20,,---,2.70,VWS V14.01,2013-05-05 04:00:00,
2013-05-05 00:01:00,53.9,53.3,29.83,East,85,0.0,0.0,98,0.18,,---,0.00,VWS V14.01,2013-05-05 04:01:00,
2013-05-05 00:06:00,54.0,53.5,29.82,SW,214,0.0,0.0,98,0.23,,---,0.05,VWS V14.01,2013-05-05 04:06:00,
2013-05-05 00:10:00,54.1,53.5,29.82,SW,214,0.0,0.0,98,0.24,,---,0.06,VWS V14.01,2013-05-05 04:10:00,
2013-05-05 00:11:00,54.1,53.5,29.82,SW,214,0.0,0.0,98,0.23,,---,0.07,VWS V14.01,2013-05-05 04:11:00,
2013-05-05 00:16:00,54.1,53.5,29.82,SW,214,0.0,0.0,98,0.24,,---,0.08,VWS V14.01,2013-05-05 04:16:00,
2013-05-05 00:20:00,54.1,53.5,29.82,NE,54,0.0,0.0,98,0.26,,---,0.10,VWS V14.01,2013-05-05 04:20:00,
2013-05-05 00:21:00,54.1,53.5,29.82,NE,54,0.0,0.0,98,0.22,,---,0.10,VWS V14.01,2013-05-05 04:21:00,
2013-05-05 00:26:00,54.1,53.5,29.82,ENE,68,0.0,0.0,98,0.22,,---,0.10,VWS V14.01,2013-05-05 04:26:00,
2013-05-05 00:30:00,54.2,53.7,29.81,ENE,67,0.0,1.0,98,0.24,,---,0.12,VWS V14.01,2013-05-05 04:30:00,
2013-05-05 00:31:00,54.2,53.7,29.81,ENE,67,0.0,0.0,98,0.19,,---,0.12,VWS V14.01,2013-05-05 04:31:00,
2013-05-05 00:36:00,54.2,53.7,29.82,ENE,67,0.0,0.0,98,0.20,,---,0.13,VWS V14.01,2013-05-05 04:36:00,
2013-05-05 00:40:00,54.2,53.7,29.81,ENE,67,0.0,0.0,98,0.21,,---,0.14,VWS V14.01,2013-05-05 04:40:00,
2013-05-05 00:41:00,54.2,53.7,29.81,ENE,67,0.0,0.0,98,0.16,,---,0.14,VWS V14.01,2013-05-05 04:41:00,
2013-05-05 00:46:00,54.2,53.7,29.81,ENE,67,0.0,1.0,98,0.17,,---,0.15,VWS V14.01,2013-05-05 04:46:00,
2013-05-05 00:50:00,54.3,53.8,29.81,ENE,67,0.0,1.0,98,0.18,,---,0.16,VWS V14.01,2013-05-05 04:50:00,
2013-05-05 00:51:00,54.2,53.7,29.81,ENE,67,0.0,0.0,98,0.17,,---,0.16,VWS V14.01,2013-05-05 04:51:00,
2013-05-05 00:56:00,54.3,53.8,29.81,ENE,67,0.0,0.0,98,0.19,,---,0.18,VWS V14.01,2013-05-05 04:56:00,
2013-05-05 01:00:00,54.3,53.8,29.81,ENE,72,0.0,0.0,98,0.19,,---,0.18,VWS V14.01,2013-05-05 05:00:00,
2013-05-05 01:01:00,54.3,53.8,29.81,ENE,72,0.0,0.0,98,0.18,,---,0.18,VWS V14.01,2013-05-05 05:01:00,
2013-05-05 01:06:00,54.3,53.8,29.81,ESE,106,0.0,1.0,98,0.18,,---,0.18,VWS V14.01,2013-05-05 05:06:00,
2013-05-05 01:10:00,54.3,53.8,29.81,ESE,106,0.0,1.0,98,0.18,,---,0.18,VWS V14.01,2013-05-05 05:10:00,
2013-05-05 01:11:00,54.3,53.8,29.81,ESE,105,0.0,0.0,98,0.13,,---,0.19,VWS V14.01,2013-05-05 05:11:00,
2013-05-05 01:16:00,54.3,53.8,29.81,ESE,105,0.0,0.0,98,0.14,,---,0.20,VWS V14.01,2013-05-05 05:16:00,
2013-05-05 01:20:00,54.3,53.8,29.81,ESE,106,0.0,0.0,98,0.15,,---,0.21,VWS V14.01,2013-05-05 05:20:00,
2013-05-05 01:21:00,54.3,53.8,29.81,ESE,106,0.0,0.0,98,0.11,,---,0.21,VWS V14.01,2013-05-05 05:21:00,
2013-05-05 01:26:00,54.3,53.8,29.80,ESE,106,0.0,0.0,98,0.14,,---,0.24,VWS V14.01,2013-05-05 05:26:00,
2013-05-05 01:30:00,54.3,53.8,29.80,ENE,63,0.0,0.0,98,0.16,,---,0.26,VWS V14.01,2013-05-05 05:30:00,
2013-05-05 01:31:00,54.3,53.8,29.80,ENE,61,0.0,0.0,98,0.14,,---,0.26,VWS V14.01,2013-05-05 05:31:00,
2013-05-05 01:36:00,54.3,53.8,29.80,ENE,60,0.0,0.0,98,0.16,,---,0.28,VWS V14.01,2013-05-05 05:36:00,
2013-05-05 01:40:00,54.3,53.8,29.80,ENE,60,0.0,0.0,98,0.18,,---,0.30,VWS V14.01,2013-05-05 05:40:00,
2013-05-05 01:41:00,54.3,53.8,29.80,ENE,59,0.0,0.0,98,0.16,,---,0.30,VWS V14.01,2013-05-05 05:41:00,
2013-05-05 01:46:00,54.3,53.8,29.79,ENE,60,0.0,0.0,98,0.18,,---,0.32,VWS V14.01,2013-05-05 05:46:00,
2013-05-05 01:50:00,54.3,53.8,29.79,ENE,59,0.0,0.0,98,0.19,,---,0.33,VWS V14.01,2013-05-05 05:50:00,
2013-05-05 01:51:00,54.3,53.8,29.80,ENE,74,0.0,1.0,98,0.17,,---,0.33,VWS V14.01,2013-05-05 05:51:00,
2013-05-05 01:56:00,54.3,53.8,29.79,ENE,75,0.0,1.0,98,0.19,,---,0.35,VWS V14.01,2013-05-05 05:56:00,
2013-05-05 02:00:00,54.3,53.8,29.79,ENE,73,0.0,1.0,98,0.21,,---,0.37,VWS V14.01,2013-05-05 06:00:00,
2013-05-05 02:01:00,54.3,53.8,29.79,ENE,75,0.0,0.0,98,0.19,,---,0.37,VWS V14.01,2013-05-05 06:01:00,
2013-05-05 02:06:00,54.3,53.8,29.79,ENE,75,0.0,0.0,98,0.20,,---,0.38,VWS V14.01,2013-05-05 06:06:00,
2013-05-05 02:10:00,54.3,53.8,29.78,NNW,338,0.0,1.0,98,0.21,,---,0.39,VWS V14.01,2013-05-05 06:10:00,
2013-05-05 02:11:00,54.3,53.8,29.78,NNW,338,0.0,0.0,98,0.21,,---,0.39,VWS V14.01,2013-05-05 06:11:00,
2013-05-05 02:16:00,54.3,53.8,29.78,North,358,0.0,1.0,98,0.22,,---,0.40,VWS V14.01,2013-05-05 06:16:00,
2013-05-05 02:20:00,54.3,53.8,29.78,NNE,23,0.0,1.0,98,0.23,,---,0.41,VWS V14.01,2013-05-05 06:20:00,
2013-05-05 02:21:00,54.3,53.8,29.78,NNE,23,0.0,0.0,98,0.21,,---,0.42,VWS V14.01,2013-05-05 06:21:00,
2013-05-05 02:26:00,54.3,53.8,29.77,WSW,253,0.0,1.0,98,0.24,,---,0.45,VWS V14.01,2013-05-05 06:26:00,
2013-05-05 02:30:00,54.2,53.7,29.78,WNW,297,0.0,1.0,98,0.25,,---,0.46,VWS V14.01,2013-05-05 06:30:00,
2013-05-05 02:31:00,54.2,53.7,29.78,WNW,297,0.0,1.0,98,0.20,,---,0.46,VWS V14.01,2013-05-05 06:31:00,
2013-05-05 02:36:00,54.2,53.7,29.78,WNW,299,0.0,1.0,98,0.23,,---,0.49,VWS V14.01,2013-05-05 06:36:00,
2013-05-05 02:40:00,54.2,53.7,29.78,NW,321,0.0,1.0,98,0.24,,---,0.50,VWS V14.01,2013-05-05 06:40:00,
2013-05-05 02:41:00,54.2,53.7,29.78,NW,323,0.0,0.0,98,0.21,,---,0.51,VWS V14.01,2013-05-05 06:41:00,
2013-05-05 02:46:00,54.2,53.7,29.77,NE,41,0.0,0.0,98,0.23,,---,0.53,VWS V14.01,2013-05-05 06:46:00,
2013-05-05 02:50:00,54.2,53.7,29.77,NE,40,0.0,1.0,98,0.25,,---,0.55,VWS V14.01,2013-05-05 06:50:00,
2013-05-05 02:51:00,54.2,53.7,29.77,NE,40,0.0,0.0,98,0.22,,---,0.55,VWS V14.01,2013-05-05 06:51:00,
2013-05-05 02:56:00,54.1,53.5,29.77,North,359,0.0,1.0,98,0.24,,---,0.57,VWS V14.01,2013-05-05 06:56:00,
2013-05-05 03:00:00,54.1,53.5,29.77,ENE,72,0.0,1.0,98,0.26,,---,0.59,VWS V14.01,2013-05-05 07:00:00,
2013-05-05 03:01:00,54.1,53.5,29.77,East,98,0.0,0.0,98,0.23,,---,0.60,VWS V14.01,2013-05-05 07:01:00,
2013-05-05 03:06:00,54.1,53.5,29.77,East,97,0.0,0.0,98,0.27,,---,0.64,VWS V14.01,2013-05-05 07:06:00,
2013-05-05 03:10:00,54.1,53.5,29.77,East,98,0.0,0.0,98,0.30,,---,0.67,VWS V14.01,2013-05-05 07:10:00,
2013-05-05 03:11:00,54.1,53.5,29.77,East,97,0.0,0.0,98,0.29,,---,0.68,VWS V14.01,2013-05-05 07:11:00,
2013-05-05 03:16:00,54.1,53.5,29.77,East,98,0.0,1.0,98,0.32,,---,0.71,VWS V14.01,2013-05-05 07:16:00,
2013-05-05 03:20:00,54.1,53.5,29.77,East,98,0.0,1.0,98,0.35,,---,0.74,VWS V14.01,2013-05-05 07:20:00,
2013-05-05 03:21:00,54.1,53.5,29.77,East,98,0.0,0.0,98,0.34,,---,0.75,VWS V14.01,2013-05-05 07:21:00,
2013-05-05 03:26:00,54.1,53.5,29.78,East,98,0.0,0.0,98,0.40,,---,0.81,VWS V14.01,2013-05-05 07:26:00,
2013-05-05 03:30:00,54.0,53.5,29.78,East,98,0.0,0.0,98,0.44,,---,0.85,VWS V14.01,2013-05-05 07:30:00,
2013-05-05 03:31:00,54.0,53.5,29.78,East,98,0.0,0.0,98,0.40,,---,0.86,VWS V14.01,2013-05-05 07:31:00,
2013-05-05 03:36:00,54.1,53.5,29.78,East,97,0.0,0.0,98,0.46,,---,0.92,VWS V14.01,2013-05-05 07:36:00,
2013-05-05 03:40:00,54.1,53.5,29.78,East,97,0.0,0.0,98,0.50,,---,0.96,VWS V14.01,2013-05-05 07:40:00,
2013-05-05 03:41:00,54.1,53.5,29.78,East,98,0.0,0.0,98,0.46,,---,0.96,VWS V14.01,2013-05-05 07:41:00,
2013-05-05 03:46:00,54.1,53.5,29.78,East,97,0.0,0.0,98,0.49,,---,0.99,VWS V14.01,2013-05-05 07:46:00,
2013-05-05 03:50:00,54.1,53.5,29.78,East,98,0.0,0.0,98,0.50,,---,1.00,VWS V14.01,2013-05-05 07:50:00,
2013-05-05 03:51:00,54.1,53.5,29.78,East,97,0.0,0.0,98,0.46,,---,1.01,VWS V14.01,2013-05-05 07:51:00,
2013-05-05 03:56:00,54.1,53.5,29.78,East,98,0.0,0.0,98,0.46,,---,1.01,VWS V14.01,2013-05-05 07:56:00,
2013-05-05 04:00:00,54.2,53.7,29.78,East,97,0.0,0.0,98,0.47,,---,1.02,VWS V14.01,2013-05-05 08:00:00,
2013-05-05 04:01:00,54.1,53.5,29.78,East,97,0.0,0.0,98,0.43,,---,1.02,VWS V14.01,2013-05-05 08:01:00,
2013-05-05 04:06:00,54.1,53.5,29.78,East,97,0.0,0.0,98,0.44,,---,1.03,VWS V14.01,2013-05-05 08:06:00,
2013-05-05 04:10:00,54.1,53.5,29.78,East,98,0.0,0.0,98,0.45,,---,1.04,VWS V14.01,2013-05-05 08:10:00,
2013-05-05 04:11:00,54.1,53.5,29.78,East,97,0.0,0.0,98,0.37,,---,1.04,VWS V14.01,2013-05-05 08:11:00,
2013-05-05 04:16:00,54.1,53.5,29.78,East,98,0.0,0.0,98,0.38,,---,1.05,VWS V14.01,2013-05-05 08:16:00,
2013-05-05 04:20:00,54.1,53.5,29.78,East,98,0.0,0.0,98,0.39,,---,1.06,VWS V14.01,2013-05-05 08:20:00,
2013-05-05 04:21:00,54.2,53.7,29.78,East,98,0.0,0.0,98,0.32,,---,1.06,VWS V14.01,2013-05-05 08:21:00,
2013-05-05 04:26:00,54.1,53.5,29.78,East,98,0.0,0.0,98,0.32,,---,1.06,VWS V14.01,2013-05-05 08:26:00,
2013-05-05 04:30:00,54.1,53.5,29.78,East,97,0.0,0.0,98,0.34,,---,1.08,VWS V14.01,2013-05-05 08:30:00,
2013-05-05 04:31:00,54.0,53.2,29.78,East,97,0.0,0.0,97,0.23,,---,1.08,VWS V14.01,2013-05-05 08:31:00,
2013-05-05 04:36:00,53.7,52.9,29.78,East,98,0.0,0.0,97,0.24,,---,1.09,VWS V14.01,2013-05-05 08:36:00,
2013-05-05 04:40:00,53.4,52.6,29.79,East,98,0.0,0.0,97,0.25,,---,1.10,VWS V14.01,2013-05-05 08:40:00,
2013-05-05 04:41:00,53.4,52.6,29.79,East,97,0.0,0.0,97,0.15,,---,1.11,VWS V14.01,2013-05-05 08:41:00,
2013-05-05 04:46:00,53.0,52.2,29.78,East,98,0.0,0.0,97,0.19,,---,1.15,VWS V14.01,2013-05-05 08:46:00,
2013-05-05 04:50:00,52.8,52.0,29.78,East,98,0.0,0.0,97,0.22,,---,1.18,VWS V14.01,2013-05-05 08:50:00,
2013-05-05 04:51:00,52.7,51.9,29.78,East,98,0.0,0.0,97,0.18,,---,1.18,VWS V14.01,2013-05-05 08:51:00,
2013-05-05 04:56:00,52.3,51.5,29.77,East,97,0.0,0.0,97,0.20,,---,1.20,VWS V14.01,2013-05-05 08:56:00,
2013-05-05 05:00:00,52.2,51.4,29.77,East,97,0.0,0.0,97,0.21,,---,1.21,VWS V14.01,2013-05-05 09:00:00,
2013-05-05 05:01:00,52.2,51.4,29.77,East,98,0.0,0.0,97,0.19,,---,1.21,VWS V14.01,2013-05-05 09:01:00,
2013-05-05 05:06:00,52.0,51.2,29.77,East,98,0.0,0.0,97,0.20,,---,1.22,VWS V14.01,2013-05-05 09:06:00,
2013-05-05 05:10:00,51.9,51.1,29.77,East,98,0.0,0.0,97,0.21,,---,1.23,VWS V14.01,2013-05-05 09:10:00,
2013-05-05 05:11:00,51.8,51.0,29.77,East,98,0.0,0.0,97,0.19,,---,1.23,VWS V14.01,2013-05-05 09:11:00,
2013-05-05 05:16:00,51.8,51.0,29.77,East,98,0.0,0.0,97,0.21,,---,1.25,VWS V14.01,2013-05-05 09:16:00,
2013-05-05 05:20:00,51.8,51.0,29.77,East,98,0.0,0.0,97,0.22,,---,1.26,VWS V14.01,2013-05-05 09:20:00,
2013-05-05 05:21:00,51.8,51.0,29.77,East,98,0.0,0.0,97,0.21,,---,1.27,VWS V14.01,2013-05-05 09:21:00,
2013-05-05 05:26:00,51.8,51.0,29.77,East,98,0.0,0.0,97,0.21,,---,1.27,VWS V14.01,2013-05-05 09:26:00,
2013-05-05 05:30:00,51.8,51.0,29.77,East,98,0.0,0.0,97,0.21,,---,1.27,VWS V14.01,2013-05-05 09:30:00,
2013-05-05 05:31:00,51.8,51.0,29.77,East,98,0.0,0.0,97,0.19,,---,1.27,VWS V14.01,2013-05-05 09:31:00,
2013-05-05 05:36:00,51.8,51.0,29.77,East,98,0.0,0.0,97,0.20,,---,1.28,VWS V14.01,2013-05-05 09:36:00,
2013-05-05 05:40:00,51.8,51.0,29.77,East,97,0.0,0.0,97,0.21,,---,1.29,VWS V14.01,2013-05-05 09:40:00,
2013-05-05 05:41:00,51.8,51.0,29.77,East,98,0.0,0.0,97,0.19,,---,1.29,VWS V14.01,2013-05-05 09:41:00,
2013-05-05 05:46:00,51.9,51.4,29.77,East,98,0.0,0.0,98,0.20,,---,1.30,VWS V14.01,2013-05-05 09:46:00,
2013-05-05 05:50:00,51.9,51.3,29.77,East,98,0.0,0.0,98,0.21,,---,1.31,VWS V14.01,2013-05-05 09:50:00,
2013-05-05 05:51:00,51.9,51.4,29.77,East,97,0.0,0.0,98,0.13,,---,1.31,VWS V14.01,2013-05-05 09:51:00,
2013-05-05 05:56:00,52.0,51.5,29.78,East,98,0.0,0.0,98,0.13,,---,1.31,VWS V14.01,2013-05-05 09:56:00,
2013-05-05 06:00:00,52.1,51.6,29.78,East,97,0.0,0.0,98,0.13,,---,1.31,VWS V14.01,2013-05-05 10:00:00,
2013-05-05 06:01:00,52.1,51.5,29.78,East,98,0.0,0.0,98,0.11,,---,1.32,VWS V14.01,2013-05-05 10:01:00,
2013-05-05 06:06:00,52.1,51.5,29.78,East,97,0.0,0.0,98,0.11,,---,1.32,VWS V14.01,2013-05-05 10:06:00,
2013-05-05 06:10:00,52.2,51.7,29.78,East,97,0.0,0.0,98,0.11,,---,1.32,VWS V14.01,2013-05-05 10:10:00,
2013-05-05 06:11:00,52.2,51.7,29.78,East,98,0.0,0.0,98,0.09,,---,1.32,VWS V14.01,2013-05-05 10:11:00,
2013-05-05 06:16:00,52.3,51.8,29.79,East,97,0.0,0.0,98,0.09,,---,1.32,VWS V14.01,2013-05-05 10:16:00,
2013-05-05 06:20:00,52.4,51.8,29.79,East,98,0.0,0.0,98,0.09,,---,1.32,VWS V14.01,2013-05-05 10:20:00,
2013-05-05 06:21:00,52.4,51.8,29.79,East,98,0.0,0.0,98,0.06,,---,1.32,VWS V14.01,2013-05-05 10:21:00,
2013-05-05 06:26:00,52.5,52.0,29.79,East,98,0.0,0.0,98,0.06,,---,1.32,VWS V14.01,2013-05-05 10:26:00,
2013-05-05 06:30:00,52.5,52.0,29.79,East,98,0.0,0.0,98,0.06,,---,1.32,VWS V14.01,2013-05-05 10:30:00,
2013-05-05 06:31:00,52.5,52.0,29.79,East,97,0.0,0.0,98,0.05,,---,1.32,VWS V14.01,2013-05-05 10:31:00,
2013-05-05 06:36:00,52.4,51.8,29.79,East,98,0.0,0.0,98,0.05,,---,1.32,VWS V14.01,2013-05-05 10:36:00,
2013-05-05 06:40:00,52.4,51.8,29.79,East,98,0.0,0.0,98,0.05,,---,1.32,VWS V14.01,2013-05-05 10:40:00,
2013-05-05 06:41:00,52.4,51.8,29.79,East,98,0.0,0.0,98,0.03,,---,1.32,VWS V14.01,2013-05-05 10:41:00,
2013-05-05 06:46:00,52.4,51.8,29.79,East,98,0.0,0.0,98,0.03,,---,1.32,VWS V14.01,2013-05-05 10:46:00,
2013-05-05 06:50:00,52.5,52.0,29.79,East,97,0.0,0.0,98,0.03,,---,1.32,VWS V14.01,2013-05-05 10:50:00,
2013-05-05 06:51:00,52.5,52.0,29.79,East,98,0.0,0.0,98,0.01,,---,1.32,VWS V14.01,2013-05-05 10:51:00,
2013-05-05 06:56:00,52.5,52.0,29.79,East,97,0.0,0.0,98,0.01,,---,1.32,VWS V14.01,2013-05-05 10:56:00,
2013-05-05 07:00:00,52.6,52.0,29.79,East,98,0.0,0.0,98,0.01,,---,1.32,VWS V14.01,2013-05-05 11:00:00,
2013-05-05 07:01:00,52.5,52.0,29.79,East,98,0.0,0.0,98,0.01,,---,1.32,VWS V14.01,2013-05-05 11:01:00,
2013-05-05 07:06:00,52.6,52.0,29.80,East,98,0.0,0.0,98,0.01,,---,1.32,VWS V14.01,2013-05-05 11:06:00,
2013-05-05 07:10:00,52.6,52.0,29.80,East,98,0.0,0.0,98,0.01,,---,1.32,VWS V14.01,2013-05-05 11:10:00,
2013-05-05 07:11:00,52.6,52.0,29.80,East,97,0.0,0.0,98,0.00,,---,1.32,VWS V14.01,2013-05-05 11:11:00,
2013-05-05 07:16:00,52.6,52.0,29.80,East,98,0.0,0.0,98,0.00,,---,1.32,VWS V14.01,2013-05-05 11:16:00,
2013-05-05 07:20:00,52.6,52.0,29.80,East,98,0.0,0.0,98,0.00,,---,1.32,VWS V14.01,2013-05-05 11:20:00,
2013-05-05 07:21:00,52.6,52.0,29.80,East,98,0.0,0.0,98,0.00,,---,1.32,VWS V14.01,2013-05-05 11:21:00,
2013-05-05 07:26:00,52.6,52.0,29.80,East,98,0.0,0.0,98,0.00,,---,1.32,VWS V14.01,2013-05-05 11:26:00,
2013-05-05 07:30:00,52.6,52.0,29.81,East,98,0.0,0.0,98,0.00,,---,1.32,VWS V14.01,2013-05-05 11:30:00,
2013-05-05 07:31:00,52.6,52.0,29.81,East,98,0.0,0.0,98,0.00,,---,1.32,VWS V14.01,2013-05-05 11:31:00,
2013-05-05 07:36:00,52.6,52.0,29.81,East,98,0.0,0.0,98,0.00,,---,1.32,VWS V14.01,2013-05-05 11:36:00,
2013-05-05 07:40:00,52.5,52.0,29.81,East,98,0.0,0.0,98,0.01,,---,1.33,VWS V14.01,2013-05-05 11:40:00,
2013-05-05 07:41:00,52.5,52.0,29.81,East,96,0.0,0.0,98,0.01,,---,1.33,VWS V14.01,2013-05-05 11:41:00,
2013-05-05 07:46:00,52.3,51.5,29.81,East,97,1.0,1.0,97,0.01,,---,1.33,VWS V14.01,2013-05-05 11:46:00,
2013-05-05 07:50:00,52.1,51.3,29.81,East,101,0.0,1.0,97,0.01,,---,1.33,VWS V14.01,2013-05-05 11:50:00,
2013-05-05 07:51:00,52.1,51.3,29.81,East,101,0.0,0.0,97,0.01,,---,1.33,VWS V14.01,2013-05-05 11:51:00,
2013-05-05 07:56:00,51.9,51.1,29.81,East,100,0.0,0.0,97,0.01,,---,1.33,VWS V14.01,2013-05-05 11:56:00,
2013-05-05 08:00:00,51.8,51.0,29.81,ESE,102,0.0,0.0,97,0.01,,---,1.33,VWS V14.01,2013-05-05 12:00:00,
2013-05-05 08:01:00,51.8,51.0,29.81,ESE,102,0.0,0.0,97,0.01,,---,1.33,VWS V14.01,2013-05-05 12:01:00,
2013-05-05 08:06:00,51.7,50.9,29.81,East,101,0.0,0.0,97,0.01,,---,1.33,VWS V14.01,2013-05-05 12:06:00,
2013-05-05 08:10:00,51.7,50.9,29.81,ESE,102,0.0,0.0,97,0.01,,---,1.33,VWS V14.01,2013-05-05 12:10:00,
2013-05-05 08:11:00,51.7,50.9,29.81,ESE,102,0.0,0.0,97,0.01,,---,1.33,VWS V14.01,2013-05-05 12:11:00,
2013-05-05 08:16:00,51.7,50.9,29.81,East,101,0.0,0.0,97,0.01,,---,1.33,VWS V14.01,2013-05-05 12:16:00,
2013-05-05 08:20:00,51.8,51.3,29.81,East,100,0.0,0.0,98,0.01,,---,1.33,VWS V14.01,2013-05-05 12:20:00,
2013-05-05 08:21:00,51.9,51.4,29.81,East,100,0.0,0.0,98,0.01,,---,1.33,VWS V14.01,2013-05-05 12:21:00,
2013-05-05 08:26:00,52.1,51.5,29.81,East,100,0.0,0.0,98,0.01,,---,1.33,VWS V14.01,2013-05-05 12:26:00,
2013-05-05 08:30:00,52.1,51.6,29.81,East,101,0.0,0.0,98,0.01,,---,1.33,VWS V14.01,2013-05-05 12:30:00,
2013-05-05 08:31:00,52.1,51.5,29.81,East,100,0.0,0.0,98,0.01,,---,1.33,VWS V14.01,2013-05-05 12:31:00,
2013-05-05 08:36:00,52.1,51.5,29.81,East,100,0.0,0.0,98,0.01,,---,1.33,VWS V14.01,2013-05-05 12:36:00,
2013-05-05 08:40:00,52.2,51.4,29.81,East,100,0.0,0.0,97,0.01,,---,1.33,VWS V14.01,2013-05-05 12:40:00,
2013-05-05 08:41:00,52.2,51.7,29.81,East,100,0.0,0.0,98,0.00,,---,1.33,VWS V14.01,2013-05-05 12:41:00,
2013-05-05 08:46:00,52.3,51.8,29.81,East,100,0.0,0.0,98,0.00,,---,1.33,VWS V14.01,2013-05-05 12:46:00,
2013-05-05 08:50:00,52.4,51.8,29.81,East,101,0.0,0.0,98,0.00,,---,1.33,VWS V14.01,2013-05-05 12:50:00,
2013-05-05 08:51:00,52.4,51.8,29.81,East,101,0.0,0.0,98,0.00,,---,1.33,VWS V14.01,2013-05-05 12:51:00,
2013-05-05 08:56:00,52.4,51.8,29.82,East,100,0.0,0.0,98,0.00,,---,1.33,VWS V14.01,2013-05-05 12:56:00,
2013-05-05 09:00:00,52.4,51.8,29.82,East,100,0.0,0.0,98,0.00,,---,1.33,VWS V14.01,2013-05-05 13:00:00,
2013-05-05 09:01:00,52.4,51.8,29.82,East,100,0.0,0.0,98,0.00,,---,1.33,VWS V14.01,2013-05-05 13:01:00,
2013-05-05 09:06:00,52.4,51.6,29.82,East,101,0.0,0.0,97,0.00,,---,1.33,VWS V14.01,2013-05-05 13:06:00,
2013-05-05 09:10:00,52.3,51.5,29.82,ESE,102,0.0,0.0,97,0.00,,---,1.33,VWS V14.01,2013-05-05 13:10:00,
2013-05-05 09:11:00,52.3,51.5,29.82,ESE,102,0.0,0.0,97,0.00,,---,1.33,VWS V14.01,2013-05-05 13:11:00,
2013-05-05 09:16:00,52.4,51.6,29.82,East,101,0.0,0.0,97,0.00,,---,1.33,VWS V14.01,2013-05-05 13:16:00,
2013-05-05 09:20:00,52.5,52.0,29.82,East,100,0.0,0.0,98,0.01,,---,1.34,VWS V14.01,2013-05-05 13:20:00,
2013-05-05 09:21:00,52.5,52.0,29.82,ESE,102,0.0,0.0,98,0.01,,---,1.34,VWS V14.01,2013-05-05 13:21:00,
2013-05-05 09:26:00,52.6,52.0,29.82,ESE,102,0.0,0.0,98,0.01,,---,1.34,VWS V14.01,2013-05-05 13:26:00,
2013-05-05 09:30:00,52.6,52.0,29.82,ESE,102,0.0,0.0,98,0.01,,---,1.34,VWS V14.01,2013-05-05 13:30:00,
2013-05-05 09:31:00,52.6,52.0,29.82,East,101,0.0,0.0,98,0.02,,---,1.35,VWS V14.01,2013-05-05 13:31:00,
2013-05-05 09:36:00,52.7,52.2,29.82,ESE,102,0.0,0.0,98,0.04,,---,1.37,VWS V14.01,2013-05-05 13:36:00,
2013-05-05 09:40:00,52.9,52.3,29.82,ESE,102,0.0,0.0,98,0.05,,---,1.38,VWS V14.01,2013-05-05 13:40:00,
2013-05-05 09:41:00,52.9,52.3,29.82,ESE,102,0.0,0.0,98,0.05,,---,1.38,VWS V14.01,2013-05-05 13:41:00,
2013-05-05 09:46:00,53.0,52.5,29.82,ESE,102,0.0,0.0,98,0.08,,---,1.41,VWS V14.01,2013-05-05 13:46:00,
2013-05-05 09:50:00,53.1,52.5,29.82,East,101,0.0,0.0,98,0.08,,---,1.41,VWS V14.01,2013-05-05 13:50:00,
2013-05-05 09:51:00,53.1,52.5,29.82,East,101,0.0,0.0,98,0.08,,---,1.41,VWS V14.01,2013-05-05 13:51:00,
2013-05-05 09:56:00,53.1,52.5,29.82,ESE,102,0.0,0.0,98,0.09,,---,1.42,VWS V14.01,2013-05-05 13:56:00,
2013-05-05 10:00:00,53.1,52.5,29.82,East,101,0.0,0.0,98,0.09,,---,1.42,VWS V14.01,2013-05-05 14:00:00,
2013-05-05 10:01:00,53.1,52.5,29.82,East,101,0.0,0.0,98,0.09,,---,1.42,VWS V14.01,2013-05-05 14:01:00,
2013-05-05 10:06:00,53.2,52.7,29.82,ESE,102,0.0,0.0,98,0.09,,---,1.42,VWS V14.01,2013-05-05 14:06:00,
2013-05-05 10:10:00,53.3,52.8,29.82,ESE,102,0.0,0.0,98,0.09,,---,1.42,VWS V14.01,2013-05-05 14:10:00,
2013-05-05 10:11:00,53.3,52.8,29.82,East,101,0.0,0.0,98,0.09,,---,1.42,VWS V14.01,2013-05-05 14:11:00,
2013-05-05 10:16:00,53.4,52.8,29.82,ESE,102,0.0,0.0,98,0.09,,---,1.42,VWS V14.01,2013-05-05 14:16:00,
2013-05-05 10:20:00,53.5,53.0,29.82,East,101,0.0,0.0,98,0.09,,---,1.42,VWS V14.01,2013-05-05 14:20:00,
2013-05-05 10:21:00,53.6,53.0,29.82,ESE,102,0.0,0.0,98,0.08,,---,1.42,VWS V14.01,2013-05-05 14:21:00,
2013-05-05 10:26:00,53.7,53.2,29.82,ESE,102,0.0,0.0,98,0.08,,---,1.42,VWS V14.01,2013-05-05 14:26:00,
2013-05-05 10:30:00,53.9,53.3,29.82,East,101,0.0,0.0,98,0.08,,---,1.42,VWS V14.01,2013-05-05 14:30:00,
2013-05-05 10:31:00,54.0,53.5,29.82,ESE,102,0.0,0.0,98,0.08,,---,1.42,VWS V14.01,2013-05-05 14:31:00,
2013-05-05 10:36:00,54.3,53.8,29.82,ESE,102,0.0,0.0,98,0.08,,---,1.42,VWS V14.01,2013-05-05 14:36:00,
2013-05-05 10:40:00,54.5,54.0,29.82,ESE,102,0.0,0.0,98,0.08,,---,1.42,VWS V14.01,2013-05-05 14:40:00,
2013-05-05 10:41:00,54.5,54.0,29.82,East,101,0.0,0.0,98,0.04,,---,1.42,VWS V14.01,2013-05-05 14:41:00,
2013-05-05 10:46:00,54.5,54.0,29.82,East,101,0.0,0.0,98,0.04,,---,1.42,VWS V14.01,2013-05-05 14:46:00,
2013-05-05 10:50:00,54.6,53.8,29.82,ESE,102,0.0,0.0,97,0.04,,---,1.42,VWS V14.01,2013-05-05 14:50:00,
2013-05-05 10:51:00,54.6,53.8,29.82,ESE,102,0.0,0.0,97,0.01,,---,1.42,VWS V14.01,2013-05-05 14:51:00,
2013-05-05 10:56:00,54.7,53.9,29.82,East,101,0.0,0.0,97,0.01,,---,1.42,VWS V14.01,2013-05-05 14:56:00,
2013-05-05 11:00:00,54.8,54.0,29.82,ESE,102,0.0,1.0,97,0.01,,---,1.42,VWS V14.01,2013-05-05 15:00:00,
2013-05-05 11:01:00,54.9,54.1,29.82,East,101,0.0,0.0,97,0.00,,---,1.42,VWS V14.01,2013-05-05 15:01:00,
2013-05-05 11:06:00,55.4,54.8,29.82,East,86,0.0,0.0,98,0.00,,---,1.42,VWS V14.01,2013-05-05 15:06:00,
2013-05-05 11:10:00,55.8,55.2,29.82,East,86,0.0,0.0,98,0.00,,---,1.42,VWS V14.01,2013-05-05 15:10:00,
2013-05-05 11:11:00,55.9,55.3,29.82,East,86,0.0,0.0,98,0.00,,---,1.42,VWS V14.01,2013-05-05 15:11:00,
2013-05-05 11:16:00,56.1,55.5,29.82,East,86,0.0,1.0,98,0.00,,---,1.42,VWS V14.01,2013-05-05 15:16:00,
2013-05-05 11:20:00,56.2,55.4,29.82,East,86,0.0,1.0,97,0.00,,---,1.42,VWS V14.01,2013-05-05 15:20:00,
2013-05-05 11:21:00,56.2,55.4,29.82,East,86,0.0,0.0,97,0.00,,---,1.42,VWS V14.01,2013-05-05 15:21:00,
2013-05-05 11:26:00,56.3,55.5,29.82,East,86,0.0,0.0,97,0.00,,---,1.42,VWS V14.01,2013-05-05 15:26:00,
2013-05-05 11:30:00,56.4,55.6,29.82,East,86,0.0,0.0,97,0.00,,---,1.42,VWS V14.01,2013-05-05 15:30:00,
2013-05-05 11:31:00,56.5,55.7,29.82,East,86,0.0,0.0,97,0.00,,---,1.42,VWS V14.01,2013-05-05 15:31:00,
2013-05-05 11:36:00,56.7,55.9,29.82,East,86,0.0,0.0,97,0.00,,---,1.42,VWS V14.01,2013-05-05 15:36:00,
2013-05-05 11:40:00,56.8,55.7,29.82,East,86,0.0,0.0,96,0.00,,---,1.42,VWS V14.01,2013-05-05 15:40:00,
2013-05-05 11:41:00,56.8,55.7,29.82,East,86,0.0,0.0,96,0.00,,---,1.42,VWS V14.01,2013-05-05 15:41:00,
2013-05-05 11:46:00,57.0,55.9,29.82,East,86,0.0,0.0,96,0.00,,---,1.42,VWS V14.01,2013-05-05 15:46:00,
2013-05-05 11:50:00,57.2,56.1,29.82,East,86,0.0,0.0,96,0.00,,---,1.42,VWS V14.01,2013-05-05 15:50:00,
2013-05-05 11:51:00,57.2,56.1,29.82,East,86,0.0,0.0,96,0.00,,---,1.42,VWS V14.01,2013-05-05 15:51:00,
2013-05-05 11:56:00,57.5,56.4,29.82,East,86,0.0,0.0,96,0.00,,---,1.42,VWS V14.01,2013-05-05 15:56:00,
2013-05-05 12:00:00,57.5,56.1,29.82,East,86,0.0,0.0,95,0.00,,---,1.42,VWS V14.01,2013-05-05 16:00:00,
2013-05-05 12:01:00,57.5,56.1,29.82,East,86,0.0,0.0,95,0.00,,---,1.42,VWS V14.01,2013-05-05 16:01:00,
2013-05-05 12:06:00,57.5,56.1,29.82,East,86,0.0,0.0,95,0.00,,---,1.42,VWS V14.01,2013-05-05 16:06:00,
2013-05-05 12:10:00,57.6,56.2,29.81,East,86,0.0,0.0,95,0.00,,---,1.42,VWS V14.01,2013-05-05 16:10:00,
2013-05-05 12:11:00,57.7,56.3,29.82,East,86,0.0,0.0,95,0.00,,---,1.42,VWS V14.01,2013-05-05 16:11:00,
2013-05-05 12:16:00,57.8,56.1,29.82,East,86,0.0,0.0,94,0.00,,---,1.42,VWS V14.01,2013-05-05 16:16:00,
2013-05-05 12:20:00,58.0,56.6,29.81,East,86,0.0,0.0,95,0.00,,---,1.42,VWS V14.01,2013-05-05 16:20:00,
2013-05-05 12:21:00,58.0,56.6,29.81,East,86,0.0,0.0,95,0.00,,---,1.42,VWS V14.01,2013-05-05 16:21:00,
2013-05-05 12:26:00,58.4,56.7,29.81,East,86,0.0,0.0,94,0.00,,---,1.42,VWS V14.01,2013-05-05 16:26:00,
2013-05-05 12:30:00,58.4,56.4,29.81,East,86,0.0,0.0,93,0.00,,---,1.42,VWS V14.01,2013-05-05 16:30:00,
2013-05-05 12:31:00,58.4,56.4,29.81,East,86,0.0,0.0,93,0.00,,---,1.42,VWS V14.01,2013-05-05 16:31:00,
2013-05-05 12:36:00,58.5,56.2,29.81,East,86,0.0,0.0,92,0.00,,---,1.42,VWS V14.01,2013-05-05 16:36:00,
2013-05-05 12:40:00,58.6,56.6,29.81,East,86,0.0,0.0,93,0.00,,---,1.42,VWS V14.01,2013-05-05 16:40:00,
2013-05-05 12:41:00,58.7,56.7,29.81,East,86,0.0,0.0,93,0.00,,---,1.42,VWS V14.01,2013-05-05 16:41:00,
2013-05-05 12:46:00,59.3,57.6,29.81,East,86,0.0,0.0,94,0.00,,---,1.42,VWS V14.01,2013-05-05 16:46:00,
2013-05-05 12:50:00,59.7,57.4,29.81,East,86,0.0,0.0,92,0.00,,---,1.42,VWS V14.01,2013-05-05 16:50:00,
2013-05-05 12:51:00,59.7,57.1,29.81,East,86,0.0,0.0,91,0.00,,---,1.42,VWS V14.01,2013-05-05 16:51:00,
2013-05-05 12:56:00,60.1,57.8,29.80,East,86,0.0,0.0,92,0.00,,---,1.42,VWS V14.01,2013-05-05 16:56:00,
2013-05-05 13:00:00,60.4,57.2,29.80,SSW,205,0.0,0.0,89,0.00,,---,1.42,VWS V14.01,2013-05-05 17:00:00,
2013-05-05 13:01:00,60.4,57.2,29.80,SSW,205,0.0,0.0,89,0.00,,---,1.42,VWS V14.01,2013-05-05 17:01:00,
2013-05-05 13:06:00,60.6,57.3,29.80,SSW,206,0.0,0.0,89,0.00,,---,1.42,VWS V14.01,2013-05-05 17:06:00,
2013-05-05 13:10:00,60.5,57.2,29.80,SSW,205,0.0,0.0,89,0.00,,---,1.42,VWS V14.01,2013-05-05 17:10:00,
2013-05-05 13:11:00,60.5,57.2,29.80,SSW,205,0.0,0.0,89,0.00,,---,1.42,VWS V14.01,2013-05-05 17:11:00,
2013-05-05 13:16:00,60.8,57.8,29.80,SW,234,0.0,1.0,90,0.00,,---,1.42,VWS V14.01,2013-05-05 17:16:00,
2013-05-05 13:20:00,61.3,57.7,29.79,SW,233,0.0,1.0,88,0.00,,---,1.42,VWS V14.01,2013-05-05 17:20:00,
2013-05-05 13:21:00,61.5,57.9,29.80,SW,233,0.0,0.0,88,0.00,,---,1.42,VWS V14.01,2013-05-05 17:21:00,
2013-05-05 13:26:00,62.3,58.1,29.80,SW,233,0.0,0.0,86,0.00,,---,1.42,VWS V14.01,2013-05-05 17:26:00,
2013-05-05 13:30:00,63.0,58.1,29.79,SW,233,0.0,0.0,84,0.00,,---,1.42,VWS V14.01,2013-05-05 17:30:00,
2013-05-05 13:31:00,63.2,58.0,29.79,SW,235,0.0,0.0,83,0.00,,---,1.42,VWS V14.01,2013-05-05 17:31:00,
2013-05-05 13:36:00,64.1,58.5,29.79,SSW,205,0.0,0.0,82,0.00,,---,1.42,VWS V14.01,2013-05-05 17:36:00,
2013-05-05 13:40:00,64.9,58.9,29.79,SSW,207,0.0,0.0,81,0.00,,---,1.42,VWS V14.01,2013-05-05 17:40:00,
2013-05-05 13:41:00,64.9,58.9,29.80,SSW,207,0.0,0.0,81,0.00,,---,1.42,VWS V14.01,2013-05-05 17:41:00,
2013-05-05 13:45:00,65.3,58.6,29.79,SSW,207,0.0,0.0,79,0.00,,---,1.42,VWS V14.01,2013-05-05 17:45:00,
2013-05-05 13:50:00,65.5,58.5,29.79,SSW,207,0.0,0.0,78,0.00,,---,1.42,VWS V14.01,2013-05-05 17:50:00,
2013-05-05 13:55:00,65.8,58.4,29.79,SSW,207,0.0,0.0,77,0.00,,---,1.42,VWS V14.01,2013-05-05 17:55:00,
2013-05-05 14:00:00,65.9,56.6,29.79,SSW,207,0.0,0.0,72,0.00,,---,1.42,VWS V14.01,2013-05-05 18:00:00,
2013-05-05 14:05:00,65.9,55.8,29.79,SSW,207,0.0,0.0,70,0.00,,---,1.42,VWS V14.01,2013-05-05 18:05:00,
2013-05-05 14:10:00,65.7,55.7,29.79,SSW,207,0.0,0.0,70,0.00,,---,1.42,VWS V14.01,2013-05-05 18:10:00,
2013-05-05 14:15:00,65.2,55.2,29.79,SSW,208,0.0,0.0,70,0.00,,---,1.42,VWS V14.01,2013-05-05 18:15:00,
2013-05-05 14:20:00,64.9,55.7,29.79,SSW,208,0.0,0.0,72,0.00,,---,1.42,VWS V14.01,2013-05-05 18:20:00,
2013-05-05 14:25:00,64.9,53.7,29.79,SSW,208,0.0,0.0,67,0.00,,---,1.42,VWS V14.01,2013-05-05 18:25:00,
2013-05-05 14:30:00,65.0,53.8,29.79,SSW,208,0.0,0.0,67,0.00,,---,1.42,VWS V14.01,2013-05-05 18:30:00,
2013-05-05 14:35:00,65.1,52.6,29.78,SSW,208,0.0,0.0,64,0.00,,---,1.42,VWS V14.01,2013-05-05 18:35:00,
2013-05-05 14:40:00,65.0,53.0,29.78,SSW,208,0.0,0.0,65,0.00,,---,1.42,VWS V14.01,2013-05-05 18:40:00,
2013-05-05 14:45:00,65.0,53.0,29.78,SSW,208,0.0,0.0,65,0.00,,---,1.42,VWS V14.01,2013-05-05 18:45:00,
2013-05-05 14:50:00,65.5,53.4,29.78,SSW,208,0.0,0.0,65,0.00,,---,1.42,VWS V14.01,2013-05-05 18:50:00,
2013-05-05 14:55:00,66.4,53.4,29.78,SSW,208,0.0,0.0,63,0.00,,---,1.42,VWS V14.01,2013-05-05 18:55:00,
2013-05-05 15:00:00,67.2,52.9,29.78,SSW,211,0.0,0.0,60,0.00,,---,1.42,VWS V14.01,2013-05-05 19:00:00,
2013-05-05 15:05:00,67.7,52.9,29.78,SSW,211,0.0,0.0,59,0.00,,---,1.42,VWS V14.01,2013-05-05 19:05:00,
2013-05-05 15:10:00,68.3,54.3,29.78,SW,214,0.0,0.0,61,0.00,,---,1.42,VWS V14.01,2013-05-05 19:10:00,
2013-05-05 15:15:00,67.9,53.1,29.78,SW,231,0.0,0.0,59,0.00,,---,1.42,VWS V14.01,2013-05-05 19:15:00,
2013-05-05 15:20:00,68.3,54.3,29.77,SW,231,0.0,0.0,61,0.00,,---,1.42,VWS V14.01,2013-05-05 19:20:00,
2013-05-05 15:25:00,68.5,53.2,29.77,SW,233,0.0,1.0,58,0.00,,---,1.42,VWS V14.01,2013-05-05 19:25:00,
2013-05-05 15:30:00,68.4,51.6,29.77,SW,233,0.0,0.0,55,0.00,,---,1.42,VWS V14.01,2013-05-05 19:30:00,
2013-05-05 15:35:00,68.4,51.1,29.77,West,259,0.0,1.0,54,0.00,,---,1.42,VWS V14.01,2013-05-05 19:35:00,
2013-05-05 15:40:00,68.0,50.8,29.77,West,262,0.0,0.0,54,0.00,,---,1.42,VWS V14.01,2013-05-05 19:40:00,
2013-05-05 15:45:00,67.6,50.9,29.76,West,262,0.0,0.0,55,0.00,,---,1.42,VWS V14.01,2013-05-05 19:45:00,
2013-05-05 15:50:00,67.1,50.4,29.76,West,262,0.0,0.0,55,0.00,,---,1.42,VWS V14.01,2013-05-05 19:50:00,
2013-05-05 15:55:00,67.2,51.0,29.76,West,261,0.0,0.0,56,0.00,,---,1.42,VWS V14.01,2013-05-05 19:55:00,
2013-05-05 16:00:00,67.3,49.6,29.75,SW,233,0.0,0.0,53,0.00,,---,1.42,VWS V14.01,2013-05-05 20:00:00,
2013-05-05 16:05:00,67.2,50.5,29.75,SW,233,0.0,0.0,55,0.00,,---,1.42,VWS V14.01,2013-05-05 20:05:00,
2013-05-05 16:10:00,66.8,49.1,29.75,SW,228,0.0,0.0,53,0.00,,---,1.42,VWS V14.01,2013-05-05 20:10:00,
2013-05-05 16:15:00,66.5,50.8,29.75,SW,228,0.0,0.0,57,0.00,,---,1.42,VWS V14.01,2013-05-05 20:15:00,
2013-05-05 16:20:00,66.4,52.1,29.75,WSW,244,0.0,0.0,60,0.00,,---,1.42,VWS V14.01,2013-05-05 20:20:00,
2013-05-05 16:25:00,66.4,52.1,29.74,WSW,245,0.0,0.0,60,0.00,,---,1.42,VWS V14.01,2013-05-05 20:25:00,
2013-05-05 16:30:00,66.3,52.0,29.74,WSW,245,0.0,0.0,60,0.00,,---,1.42,VWS V14.01,2013-05-05 20:30:00,
2013-05-05 16:35:00,66.1,51.8,29.74,WSW,245,0.0,0.0,60,0.00,,---,1.42,VWS V14.01,2013-05-05 20:35:00,
2013-05-05 16:40:00,65.7,51.0,29.74,WSW,245,0.0,0.0,59,0.00,,---,1.42,VWS V14.01,2013-05-05 20:40:00,
2013-05-05 16:45:00,65.4,51.2,29.73,WSW,245,0.0,0.0,60,0.00,,---,1.42,VWS V14.01,2013-05-05 20:45:00,
2013-05-05 16:50:00,65.1,50.9,29.73,WSW,245,0.0,0.0,60,0.00,,---,1.42,VWS V14.01,2013-05-05 20:50:00,
2013-05-05 16:55:00,65.0,51.2,29.73,WSW,245,0.0,0.0,61,0.00,,---,1.42,VWS V14.01,2013-05-05 20:55:00,
2013-05-05 17:00:00,64.9,50.7,29.73,WSW,244,0.0,0.0,60,0.00,,---,1.42,VWS V14.01,2013-05-05 21:00:00,
2013-05-05 17:05:00,65.0,50.8,29.73,WSW,245,0.0,0.0,60,0.00,,---,1.42,VWS V14.01,2013-05-05 21:05:00,
2013-05-05 17:10:00,64.9,49.8,29.73,WSW,239,0.0,0.0,58,0.00,,---,1.42,VWS V14.01,2013-05-05 21:10:00,
2013-05-05 17:15:00,64.9,50.7,29.73,WSW,240,0.0,0.0,60,0.00,,---,1.42,VWS V14.01,2013-05-05 21:15:00,
2013-05-05 17:20:00,64.9,51.2,29.73,WSW,239,0.0,0.0,61,0.00,,---,1.42,VWS V14.01,2013-05-05 21:20:00,
2013-05-05 17:25:00,64.8,50.6,29.73,SW,231,0.0,0.0,60,0.00,,---,1.42,VWS V14.01,2013-05-05 21:25:00,
2013-05-05 17:30:00,64.9,51.6,29.72,WSW,245,0.0,0.0,62,0.00,,---,1.42,VWS V14.01,2013-05-05 21:30:00,
2013-05-05 17:35:00,65.0,50.3,29.72,WSW,245,0.0,0.0,59,0.00,,---,1.42,VWS V14.01,2013-05-05 21:35:00,
2013-05-05 17:40:00,65.0,50.3,29.72,WSW,244,0.0,0.0,59,0.00,,---,1.42,VWS V14.01,2013-05-05 21:40:00,
2013-05-05 17:45:00,65.2,50.5,29.72,WSW,245,0.0,0.0,59,0.00,,---,1.42,VWS V14.01,2013-05-05 21:45:00,
2013-05-05 17:50:00,65.4,51.2,29.72,WSW,244,0.0,0.0,60,0.00,,---,1.42,VWS V14.01,2013-05-05 21:50:00,
2013-05-05 17:55:00,65.8,53.3,29.72,WSW,245,0.0,0.0,64,0.00,,---,1.42,VWS V14.01,2013-05-05 21:55:00,
2013-05-05 18:00:00,65.7,54.5,29.72,WSW,246,0.0,0.0,67,0.00,,---,1.42,VWS V14.01,2013-05-05 22:00:00,
2013-05-05 18:05:00,65.5,55.5,29.72,WSW,246,0.0,0.0,70,0.00,,---,1.42,VWS V14.01,2013-05-05 22:05:00,
2013-05-05 18:10:00,65.0,53.0,29.71,WSW,246,0.0,0.0,65,0.00,,---,1.42,VWS V14.01,2013-05-05 22:10:00,
2013-05-05 18:15:00,64.7,51.0,29.71,WSW,245,0.0,0.0,61,0.00,,---,1.42,VWS V14.01,2013-05-05 22:15:00,
2013-05-05 18:20:00,64.4,50.7,29.71,WSW,245,0.0,0.0,61,0.00,,---,1.42,VWS V14.01,2013-05-05 22:20:00,
2013-05-05 18:25:00,64.2,50.5,29.72,WSW,246,0.0,0.0,61,0.00,,---,1.42,VWS V14.01,2013-05-05 22:25:00,
2013-05-05 18:30:00,63.8,50.1,29.72,ENE,60,0.0,0.0,61,0.00,,---,1.42,VWS V14.01,2013-05-05 22:30:00,
2013-05-05 18:35:00,63.2,50.8,29.73,NE,37,0.0,2.0,64,0.00,,---,1.42,VWS V14.01,2013-05-05 22:35:00,
2013-05-05 18:40:00,61.9,51.6,29.74,NE,54,0.0,0.0,69,0.00,,---,1.42,VWS V14.01,2013-05-05 22:40:00,
2013-05-05 18:45:00,60.3,51.6,29.74,NE,54,0.0,0.0,73,0.00,,---,1.42,VWS V14.01,2013-05-05 22:45:00,
2013-05-05 18:50:00,59.2,52.0,29.74,NE,54,0.0,0.0,77,0.00,,---,1.42,VWS V14.01,2013-05-05 22:50:00,
2013-05-05 18:55:00,58.6,52.5,29.73,NE,54,0.0,0.0,80,0.01,,---,1.43,VWS V14.01,2013-05-05 22:55:00,
2013-05-05 19:00:00,58.1,52.6,29.73,ENE,58,0.0,0.0,82,0.01,,---,1.43,VWS V14.01,2013-05-05 23:00:00,
2013-05-05 19:05:00,57.6,52.8,29.73,ENE,58,0.0,0.0,84,0.01,,---,1.43,VWS V14.01,2013-05-05 23:05:00,
2013-05-05 19:10:00,57.1,52.6,29.72,SSE,150,0.0,0.0,85,0.01,,---,1.43,VWS V14.01,2013-05-05 23:10:00,
2013-05-05 19:15:00,56.8,52.3,29.72,SSE,150,0.0,0.0,85,0.01,,---,1.43,VWS V14.01,2013-05-05 23:15:00,
2013-05-05 19:20:00,56.4,52.3,29.73,SSE,150,0.0,0.0,86,0.01,,---,1.43,VWS V14.01,2013-05-05 23:20:00,
2013-05-05 19:25:00,56.1,52.3,29.73,SSE,150,0.0,0.0,87,0.01,,---,1.43,VWS V14.01,2013-05-05 23:25:00,
2013-05-05 19:30:00,55.9,52.4,29.73,SSE,150,0.0,0.0,88,0.01,,---,1.43,VWS V14.01,2013-05-05 23:30:00,
2013-05-05 19:35:00,55.7,52.2,29.73,SSE,150,0.0,0.0,88,0.01,,---,1.43,VWS V14.01,2013-05-05 23:35:00,
2013-05-05 19:40:00,55.6,52.4,29.73,SSE,150,0.0,0.0,89,0.01,,---,1.43,VWS V14.01,2013-05-05 23:40:00,
2013-05-05 19:45:00,55.4,52.2,29.73,SSE,150,0.0,0.0,89,0.01,,---,1.43,VWS V14.01,2013-05-05 23:45:00,
2013-05-05 19:50:00,55.3,52.4,29.74,SSE,150,0.0,0.0,90,0.01,,---,1.43,VWS V14.01,2013-05-05 23:50:00,
2013-05-05 19:55:00,55.2,52.6,29.73,SSE,150,0.0,0.0,91,0.01,,---,1.43,VWS V14.01,2013-05-05 23:55:00,
2013-05-05 20:00:00,55.1,52.5,29.75,SSE,150,0.0,0.0,91,0.00,,---,1.43,VWS V14.01,2013-05-06 00:00:00,
2013-05-05 20:05:00,54.9,52.3,29.76,SSE,151,0.0,0.0,91,0.01,,---,1.44,VWS V14.01,2013-05-06 00:05:00,
2013-05-05 20:10:00,54.9,52.3,29.77,SSE,150,0.0,0.0,91,0.07,,---,1.50,VWS V14.01,2013-05-06 00:10:00,
2013-05-05 20:15:00,54.9,52.6,29.76,SSE,150,0.0,0.0,92,0.12,,---,1.55,VWS V14.01,2013-05-06 00:15:00,
2013-05-05 20:20:00,54.8,52.5,29.76,WSW,249,0.0,1.0,92,0.14,,---,1.57,VWS V14.01,2013-05-06 00:20:00,
2013-05-05 20:25:00,54.5,52.2,29.77,WSW,249,0.0,1.0,92,0.15,,---,1.58,VWS V14.01,2013-05-06 00:25:00,
2013-05-05 20:30:00,54.2,51.9,29.77,WSW,249,0.0,0.0,92,0.17,,---,1.60,VWS V14.01,2013-05-06 00:30:00,
2013-05-05 20:35:00,54.1,51.8,29.77,WSW,249,0.0,0.0,92,0.19,,---,1.62,VWS V14.01,2013-05-06 00:35:00,
2013-05-05 20:40:00,53.8,51.5,29.78,NNW,330,0.0,0.0,92,0.23,,---,1.66,VWS V14.01,2013-05-06 00:40:00,
2013-05-05 20:45:00,53.5,51.2,29.78,NW,326,0.0,0.0,92,0.27,,---,1.70,VWS V14.01,2013-05-06 00:45:00,
2013-05-05 20:50:00,53.2,50.9,29.79,West,259,0.0,0.0,92,0.31,,---,1.74,VWS V14.01,2013-05-06 00:50:00,
2013-05-05 20:55:00,52.9,50.6,29.79,NNE,22,0.0,1.0,92,0.35,,---,1.78,VWS V14.01,2013-05-06 00:55:00,
2013-05-05 21:00:00,52.5,50.2,29.78,WSW,245,0.0,0.0,92,0.39,,---,1.82,VWS V14.01,2013-05-06 01:00:00,
2013-05-05 21:05:00,52.2,50.0,29.78,WSW,237,0.0,1.0,92,0.42,,---,1.85,VWS V14.01,2013-05-06 01:05:00,
2013-05-05 21:10:00,51.9,49.9,29.78,ENE,63,0.0,1.0,93,0.37,,---,1.87,VWS V14.01,2013-05-06 01:10:00,
2013-05-05 21:15:00,51.8,49.8,29.79,ENE,64,0.0,1.0,93,0.39,,---,1.89,VWS V14.01,2013-05-06 01:15:00,
2013-05-05 21:20:00,51.6,49.7,29.80,NE,34,0.0,0.0,93,0.33,,---,1.90,VWS V14.01,2013-05-06 01:20:00,
2013-05-05 21:25:00,51.4,49.7,29.80,NE,34,0.0,0.0,94,0.33,,---,1.90,VWS V14.01,2013-05-06 01:25:00,
2013-05-05 21:30:00,51.3,49.3,29.81,NNW,335,0.0,0.0,93,0.31,,---,1.91,VWS V14.01,2013-05-06 01:30:00,
2013-05-05 21:35:00,51.2,49.5,29.80,NNW,335,0.0,0.0,94,0.32,,---,1.92,VWS V14.01,2013-05-06 01:35:00,
2013-05-05 21:40:00,51.2,49.5,29.81,NNW,334,0.0,0.0,94,0.27,,---,1.93,VWS V14.01,2013-05-06 01:40:00,
2013-05-05 21:45:00,51.2,49.5,29.81,NNW,335,0.0,0.0,94,0.29,,---,1.95,VWS V14.01,2013-05-06 01:45:00,
2013-05-05 21:50:00,51.2,49.5,29.81,NNW,335,0.0,0.0,94,0.22,,---,1.96,VWS V14.01,2013-05-06 01:50:00,
2013-05-05 21:55:00,51.2,49.5,29.80,NNW,335,0.0,0.0,94,0.25,,---,1.99,VWS V14.01,2013-05-06 01:55:00,
2013-05-05 22:00:00,51.0,49.3,29.80,NW,315,0.0,0.0,94,0.20,,---,2.02,VWS V14.01,2013-05-06 02:00:00,
2013-05-05 22:05:00,50.8,49.1,29.81,ENE,74,0.0,0.0,94,0.22,,---,2.04,VWS V14.01,2013-05-06 02:05:00,
2013-05-05 22:10:00,50.7,49.0,29.81,NE,46,0.0,0.0,94,0.18,,---,2.05,VWS V14.01,2013-05-06 02:10:00,
2013-05-05 22:15:00,50.6,48.9,29.81,NE,44,0.0,0.0,94,0.19,,---,2.06,VWS V14.01,2013-05-06 02:15:00,
2013-05-05 22:20:00,50.5,48.8,29.80,NE,44,0.0,0.0,94,0.16,,---,2.06,VWS V14.01,2013-05-06 02:20:00,
2013-05-05 22:25:00,50.4,49.0,29.80,NE,44,0.0,0.0,95,0.17,,---,2.07,VWS V14.01,2013-05-06 02:25:00,
2013-05-05 22:30:00,50.3,48.9,29.80,NE,44,0.0,0.0,95,0.16,,---,2.07,VWS V14.01,2013-05-06 02:30:00,
2013-05-05 22:35:00,50.3,48.9,29.80,NE,44,0.0,0.0,95,0.16,,---,2.07,VWS V14.01,2013-05-06 02:35:00,
2013-05-05 22:40:00,50.3,48.9,29.80,NE,44,0.0,0.0,95,0.14,,---,2.07,VWS V14.01,2013-05-06 02:40:00,
2013-05-05 22:45:00,50.2,48.8,29.79,NE,44,0.0,0.0,95,0.14,,---,2.07,VWS V14.01,2013-05-06 02:45:00,
2013-05-05 22:50:00,50.2,48.8,29.79,NE,44,0.0,0.0,95,0.11,,---,2.07,VWS V14.01,2013-05-06 02:50:00,
2013-05-05 22:55:00,50.1,48.7,29.79,NE,44,0.0,0.0,95,0.11,,---,2.07,VWS V14.01,2013-05-06 02:55:00,
2013-05-05 23:00:00,50.1,48.7,29.79,NE,44,0.0,0.0,95,0.05,,---,2.07,VWS V14.01,2013-05-06 03:00:00,
2013-05-05 23:05:00,50.1,48.7,29.79,NE,44,0.0,0.0,95,0.05,,---,2.07,VWS V14.01,2013-05-06 03:05:00,
2013-05-05 23:10:00,50.1,48.7,29.80,NE,44,0.0,0.0,95,0.02,,---,2.07,VWS V14.01,2013-05-06 03:10:00,
2013-05-05 23:15:00,50.1,48.7,29.79,NE,44,0.0,0.0,95,0.02,,---,2.07,VWS V14.01,2013-05-06 03:15:00,
2013-05-05 23:20:00,50.1,48.7,29.79,NE,44,0.0,0.0,95,0.01,,---,2.07,VWS V14.01,2013-05-06 03:20:00,
2013-05-05 23:25:00,50.1,48.7,29.79,NE,44,0.0,0.0,95,0.01,,---,2.07,VWS V14.01,2013-05-06 03:25:00,
2013-05-05 23:30:00,50.0,48.6,29.79,NE,44,0.0,0.0,95,0.00,,---,2.07,VWS V14.01,2013-05-06 03:30:00,
2013-05-05 23:35:00,49.9,48.5,29.79,NE,44,0.0,0.0,95,0.00,,---,2.07,VWS V14.01,2013-05-06 03:35:00,
2013-05-05 23:40:00,49.7,48.3,29.79,NE,44,0.0,0.0,95,0.00,,---,2.07,VWS V14.01,2013-05-06 03:40:00,
2013-05-05 23:45:00,49.5,48.1,29.79,NE,44,0.0,0.0,95,0.00,,---,2.07,VWS V14.01,2013-05-06 03:45:00,
2013-05-05 23:50:00,49.3,47.9,29.79,NE,44,0.0,0.0,95,0.00,,---,2.07,VWS V14.01,2013-05-06 03:50:00,
2013-05-05 23:55:00,49.1,47.7,29.79,NE,44,0.0,0.0,95,0.00,,---,2.07,VWS V14.01,2013-05-06 03:55:00,